Time,TemperatureF,DewpointF,PressureIn,WindDirection,WindDirectionDegrees,WindSpeedMPH,WindSpeedGustMPH,Humidity,HourlyPrecipIn,Conditions,Clouds,dailyrainin,SoftwareType,DateUTC
2013-05-24 00:02:00,60.1,54.0,30.14,ESE,113,0.0,4.0,80,0.00,,,0.00,meteohub,2013-05-24 05:02:00,
2013-05-24 00:07:00,59.7,53.6,30.15,ESE,113,2.0,4.0,80,0.00,,,0.00,meteohub,2013-05-24 05:07:00,
2013-05-24 00:12:00,59.9,54.1,30.15,SE,135,2.0,3.0,81,0.00,,,0.00,meteohub,2013-05-24 05:12:00,
2013-05-24 00:17:00,59.5,53.4,30.15,ESE,113,1.0,3.0,80,0.00,,,0.00,meteohub,2013-05-24 05:17:00,
2013-05-24 00:22:00,59.4,53.6,30.15,East,90,2.0,3.0,81,0.00,,,0.00,meteohub,2013-05-24 05:22:00,
2013-05-24 00:27:00,59.5,53.8,30.15,ESE,113,2.0,2.0,81,0.00,,,0.00,meteohub,2013-05-24 05:27:00,
2013-05-24 00:32:00,59.2,53.4,30.15,ESE,113,1.0,2.0,81,0.00,,,0.00,meteohub,2013-05-24 05:32:00,
2013-05-24 00:37:00,59.2,53.4,30.15,ESE,113,0.0,2.0,81,0.00,,,0.00,meteohub,2013-05-24 05:37:00,
2013-05-24 00:42:00,58.8,53.1,30.17,ESE,113,0.0,2.0,81,0.00,,,0.00,meteohub,2013-05-24 05:42:00,
2013-05-24 00:47:00,58.6,53.2,30.17,East,90,0.0,1.0,82,0.00,,,0.00,meteohub,2013-05-24 05:47:00,
2013-05-24 00:52:00,58.6,53.2,30.17,ESE,113,0.0,0.0,82,0.00,,,0.00,meteohub,2013-05-24 05:52:00,
2013-05-24 00:57:00,58.5,53.1,30.17,ESE,113,0.0,0.0,82,0.00,,,0.00,meteohub,2013-05-24 05:57:00,
2013-05-24 01:02:00,58.3,52.9,30.17,ESE,113,2.0,0.0,82,0.00,,,0.00,meteohub,2013-05-24 06:02:00,
2013-05-24 01:07:00,58.5,53.1,30.17,ESE,113,1.0,2.0,82,0.00,,,0.00,meteohub,2013-05-24 06:07:00,
2013-05-24 01:12:00,58.1,52.9,30.18,ESE,113,0.0,2.0,83,0.00,,,0.00,meteohub,2013-05-24 06:12:00,
2013-05-24 01:17:00,57.9,52.7,30.18,ESE,113,0.0,2.0,83,0.00,,,0.00,meteohub,2013-05-24 06:17:00,
2013-05-24 01:22:00,57.9,52.7,30.17,East,90,0.0,2.0,83,0.00,,,0.00,meteohub,2013-05-24 06:22:00,
2013-05-24 01:27:00,57.9,52.7,30.17,ESE,113,0.0,0.0,83,0.00,,,0.00,meteohub,2013-05-24 06:27:00,
2013-05-24 01:32:00,57.9,52.7,30.17,East,90,0.0,0.0,83,0.00,,,0.00,meteohub,2013-05-24 06:32:00,
2013-05-24 01:37:00,57.7,52.7,30.19,ESE,113,0.0,0.0,83,0.00,,,0.00,meteohub,2013-05-24 06:37:00,
2013-05-24 01:42:00,57.7,52.7,30.19,SSE,158,0.0,0.0,83,0.00,,,0.00,meteohub,2013-05-24 06:42:00,
2013-05-24 01:47:00,57.7,52.7,30.19,SE,135,0.0,0.0,83,0.00,,,0.00,meteohub,2013-05-24 06:47:00,
2013-05-24 01:52:00,57.4,52.3,30.19,SSE,158,0.0,0.0,83,0.00,,,0.00,meteohub,2013-05-24 06:52:00,
2013-05-24 01:57:00,57.4,52.3,30.19,ESE,113,0.0,0.0,83,0.00,,,0.00,meteohub,2013-05-24 06:57:00,
2013-05-24 02:02:00,57.0,52.2,30.19,East,90,0.0,0.0,84,0.00,,,0.00,meteohub,2013-05-24 07:02:00,
2013-05-24 02:07:00,57.0,52.2,30.19,ENE,68,0.0,0.0,84,0.00,,,0.00,meteohub,2013-05-24 07:07:00,
2013-05-24 02:12:00,57.0,52.2,30.19,ENE,68,0.0,0.0,84,0.00,,,0.00,meteohub,2013-05-24 07:12:00,
2013-05-24 02:17:00,56.8,52.0,30.18,East,90,0.0,0.0,84,0.00,,,0.00,meteohub,2013-05-24 07:17:00,
2013-05-24 02:22:00,56.7,51.8,30.18,ESE,113,0.0,0.0,84,0.00,,,0.00,meteohub,2013-05-24 07:22:00,
2013-05-24 02:27:00,56.7,51.8,30.18,East,90,0.0,0.0,84,0.00,,,0.00,meteohub,2013-05-24 07:27:00,
2013-05-24 02:32:00,56.3,51.4,30.18,East,90,0.0,0.0,84,0.00,,,0.00,meteohub,2013-05-24 07:32:00,
2013-05-24 02:37:00,56.1,51.6,30.19,East,90,0.0,0.0,85,0.00,,,0.00,meteohub,2013-05-24 07:37:00,
2013-05-24 02:42:00,56.3,51.8,30.19,East,90,0.0,0.0,85,0.00,,,0.00,meteohub,2013-05-24 07:42:00,
2013-05-24 02:47:00,56.1,51.6,30.19,East,90,0.0,0.0,85,0.00,,,0.00,meteohub,2013-05-24 07:47:00,
2013-05-24 02:52:00,56.1,52.0,30.19,East,90,0.0,0.0,86,0.00,,,0.00,meteohub,2013-05-24 07:52:00,
2013-05-24 02:57:00,56.1,52.0,30.21,ENE,68,0.0,0.0,86,0.00,,,0.00,meteohub,2013-05-24 07:57:00,
2013-05-24 03:03:00,56.1,52.0,30.21,ESE,113,0.0,0.0,86,0.00,,,0.00,meteohub,2013-05-24 08:03:00,
2013-05-24 03:07:00,55.9,51.4,30.21,East,90,2.0,2.0,85,0.00,,,0.00,meteohub,2013-05-24 08:07:00,
2013-05-24 03:13:00,55.9,51.8,30.21,East,90,2.0,2.0,86,0.00,,,0.00,meteohub,2013-05-24 08:13:00,
2013-05-24 03:18:00,55.9,51.8,30.20,ESE,113,3.0,3.0,86,0.00,,,0.00,meteohub,2013-05-24 08:18:00,
2013-05-24 03:23:00,55.9,52.2,30.20,ESE,113,5.0,5.0,87,0.00,,,0.00,meteohub,2013-05-24 08:23:00,
2013-05-24 03:28:00,55.9,51.8,30.20,ESE,113,2.0,3.0,86,0.00,,,0.00,meteohub,2013-05-24 08:28:00,
2013-05-24 03:33:00,56.1,52.0,30.20,ESE,113,3.0,5.0,86,0.00,,,0.00,meteohub,2013-05-24 08:33:00,
2013-05-24 03:38:00,56.1,52.0,30.20,ESE,113,2.0,5.0,86,0.00,,,0.00,meteohub,2013-05-24 08:38:00,
2013-05-24 03:43:00,56.1,52.0,30.20,ESE,113,1.0,3.0,86,0.00,,,0.00,meteohub,2013-05-24 08:43:00,
2013-05-24 03:48:00,56.3,52.2,30.20,ESE,113,3.0,3.0,86,0.00,,,0.00,meteohub,2013-05-24 08:48:00,
2013-05-24 03:53:00,56.3,52.2,30.20,ESE,113,3.0,3.0,86,0.00,,,0.00,meteohub,2013-05-24 08:53:00,
2013-05-24 03:58:00,56.3,52.2,30.21,East,90,2.0,3.0,86,0.00,,,0.00,meteohub,2013-05-24 08:58:00,
2013-05-24 04:03:00,56.3,52.2,30.21,ENE,68,2.0,3.0,86,0.00,,,0.00,meteohub,2013-05-24 09:03:00,
2013-05-24 04:08:00,55.9,51.8,30.21,ENE,68,3.0,3.0,86,0.00,,,0.00,meteohub,2013-05-24 09:08:00,
2013-05-24 04:13:00,55.9,51.8,30.21,ESE,113,4.0,4.0,86,0.00,,,0.00,meteohub,2013-05-24 09:13:00,
2013-05-24 04:18:00,55.8,51.6,30.20,ENE,68,3.0,5.0,86,0.00,,,0.00,meteohub,2013-05-24 09:18:00,
2013-05-24 04:23:00,55.8,51.6,30.20,East,90,2.0,5.0,86,0.00,,,0.00,meteohub,2013-05-24 09:23:00,
2013-05-24 04:28:00,55.8,51.3,30.20,ESE,113,4.0,5.0,85,0.00,,,0.00,meteohub,2013-05-24 09:28:00,
2013-05-24 04:33:00,55.6,51.1,30.20,ESE,113,2.0,5.0,85,0.00,,,0.00,meteohub,2013-05-24 09:33:00,
2013-05-24 04:38:00,55.6,51.1,30.20,ESE,113,3.0,4.0,85,0.00,,,0.00,meteohub,2013-05-24 09:38:00,
2013-05-24 04:43:00,55.6,51.1,30.20,ESE,113,6.0,6.0,85,0.00,,,0.00,meteohub,2013-05-24 09:43:00,
2013-05-24 04:48:00,55.4,50.9,30.21,ESE,113,2.0,6.0,85,0.00,,,0.00,meteohub,2013-05-24 09:48:00,
2013-05-24 04:53:00,55.2,50.7,30.21,East,90,0.0,6.0,85,0.00,,,0.00,meteohub,2013-05-24 09:53:00,
2013-05-24 04:58:00,55.2,50.7,30.22,ESE,113,0.0,6.0,85,0.00,,,0.00,meteohub,2013-05-24 09:58:00,
2013-05-24 05:03:00,55.0,50.5,30.22,ESE,113,2.0,2.0,85,0.00,,,0.00,meteohub,2013-05-24 10:03:00,
2013-05-24 05:08:00,55.0,50.5,30.22,ESE,113,3.0,3.0,85,0.00,,,0.00,meteohub,2013-05-24 10:08:00,
2013-05-24 05:13:00,55.0,50.5,30.22,East,90,1.0,3.0,85,0.00,,,0.00,meteohub,2013-05-24 10:13:00,
2013-05-24 05:18:00,55.0,50.5,30.22,ESE,113,1.0,3.0,85,0.00,,,0.00,meteohub,2013-05-24 10:18:00,
2013-05-24 05:23:00,55.0,50.5,30.22,ESE,113,4.0,4.0,85,0.00,,,0.00,meteohub,2013-05-24 10:23:00,
2013-05-24 05:28:00,54.9,50.4,30.22,East,90,0.0,2.0,85,0.00,,,0.00,meteohub,2013-05-24 10:28:00,
2013-05-24 05:33:00,54.9,50.4,30.22,ENE,68,0.0,4.0,85,0.00,,,0.00,meteohub,2013-05-24 10:33:00,
2013-05-24 05:38:00,54.9,50.4,30.24,ESE,113,0.0,4.0,85,0.00,,,0.00,meteohub,2013-05-24 10:38:00,
2013-05-24 05:43:00,54.5,50.0,30.24,East,90,0.0,2.0,85,0.00,,,0.00,meteohub,2013-05-24 10:43:00,
2013-05-24 05:48:00,54.3,49.8,30.24,ENE,68,0.0,2.0,85,0.00,,,0.00,meteohub,2013-05-24 10:48:00,
2013-05-24 05:53:00,54.1,49.5,30.24,SE,135,0.0,2.0,84,0.00,,,0.00,meteohub,2013-05-24 10:53:00,
2013-05-24 05:58:00,54.1,49.5,30.25,SE,135,0.0,2.0,84,0.00,,,0.00,meteohub,2013-05-24 10:58:00,
2013-05-24 06:03:00,54.0,49.6,30.25,ENE,68,0.0,0.0,85,0.00,,,0.00,meteohub,2013-05-24 11:03:00,
2013-05-24 06:08:00,53.8,49.5,30.25,ESE,113,0.0,0.0,85,0.00,,,0.00,meteohub,2013-05-24 11:08:00,
2013-05-24 06:13:00,53.6,49.3,30.25,East,90,0.0,0.0,85,0.00,,,0.00,meteohub,2013-05-24 11:13:00,
2013-05-24 06:18:00,53.6,49.3,30.25,ESE,113,1.0,0.0,85,0.00,,,0.00,meteohub,2013-05-24 11:18:00,
2013-05-24 06:23:00,53.4,49.3,30.25,ESE,113,0.0,1.0,86,0.00,,,0.00,meteohub,2013-05-24 11:23:00,
2013-05-24 06:29:00,53.4,49.3,30.25,ESE,113,1.0,1.0,86,0.00,,,0.00,meteohub,2013-05-24 11:29:00,
2013-05-24 06:33:00,53.4,49.3,30.25,ESE,113,0.0,1.0,86,0.00,,,0.00,meteohub,2013-05-24 11:33:00,
2013-05-24 06:38:00,53.4,49.3,30.24,ESE,113,2.0,2.0,86,0.00,,,0.00,meteohub,2013-05-24 11:38:00,
2013-05-24 06:43:00,53.6,49.5,30.24,ESE,113,0.0,2.0,86,0.00,,,0.00,meteohub,2013-05-24 11:43:00,
2013-05-24 06:49:00,53.8,49.6,30.24,ESE,113,2.0,2.0,86,0.00,,,0.00,meteohub,2013-05-24 11:49:00,
2013-05-24 06:54:00,53.8,49.6,30.24,ESE,113,2.0,2.0,86,0.00,,,0.00,meteohub,2013-05-24 11:54:00,
2013-05-24 06:59:00,54.0,49.8,30.25,ESE,113,3.0,3.0,86,0.00,,,0.00,meteohub,2013-05-24 11:59:00,
2013-05-24 07:04:00,54.3,50.2,30.25,East,90,0.0,3.0,86,0.00,,,0.00,meteohub,2013-05-24 12:04:00,
2013-05-24 07:09:00,54.5,50.4,30.25,ESE,113,2.0,3.0,86,0.00,,,0.00,meteohub,2013-05-24 12:09:00,
2013-05-24 07:14:00,54.9,50.7,30.25,ENE,68,2.0,3.0,86,0.00,,,0.00,meteohub,2013-05-24 12:14:00,
2013-05-24 07:19:00,54.7,50.5,30.25,ENE,68,1.0,2.0,86,0.00,,,0.00,meteohub,2013-05-24 12:19:00,
2013-05-24 07:24:00,55.2,51.1,30.25,ESE,113,2.0,4.0,86,0.00,,,0.00,meteohub,2013-05-24 12:24:00,
2013-05-24 07:29:00,55.6,51.1,30.25,ESE,113,2.0,4.0,85,0.00,,,0.00,meteohub,2013-05-24 12:29:00,
2013-05-24 07:34:00,55.8,51.3,30.25,ESE,113,4.0,4.0,85,0.00,,,0.00,meteohub,2013-05-24 12:34:00,
2013-05-24 07:39:00,55.9,51.3,30.26,ESE,113,5.0,5.0,84,0.00,,,0.00,meteohub,2013-05-24 12:39:00,
2013-05-24 07:44:00,56.3,51.4,30.26,ESE,113,5.0,6.0,84,0.00,,,0.00,meteohub,2013-05-24 12:44:00,
2013-05-24 07:49:00,56.7,51.3,30.26,ENE,68,3.0,6.0,82,0.00,,,0.00,meteohub,2013-05-24 12:49:00,
2013-05-24 07:54:00,56.8,51.8,30.26,East,90,2.0,6.0,83,0.00,,,0.00,meteohub,2013-05-24 12:54:00,
2013-05-24 07:59:00,57.0,51.3,30.26,ESE,113,4.0,5.0,81,0.00,,,0.00,meteohub,2013-05-24 12:59:00,
2013-05-24 08:04:00,57.2,51.1,30.26,ESE,113,4.0,4.0,80,0.00,,,0.00,meteohub,2013-05-24 13:04:00,
2013-05-24 08:09:00,57.7,51.3,30.26,ESE,113,4.0,4.0,79,0.00,,,0.00,meteohub,2013-05-24 13:09:00,
2013-05-24 08:14:00,57.9,51.1,30.26,ESE,113,4.0,5.0,78,0.00,,,0.00,meteohub,2013-05-24 13:14:00,
2013-05-24 08:19:00,58.1,50.5,30.25,East,90,2.0,8.0,76,0.00,,,0.00,meteohub,2013-05-24 13:19:00,
2013-05-24 08:24:00,58.5,50.2,30.25,ESE,113,5.0,8.0,74,0.00,,,0.00,meteohub,2013-05-24 13:24:00,
2013-05-24 08:29:00,58.6,49.6,30.25,East,90,7.0,8.0,72,0.00,,,0.00,meteohub,2013-05-24 13:29:00,
2013-05-24 08:34:00,58.6,49.3,30.25,ESE,113,7.0,8.0,71,0.00,,,0.00,meteohub,2013-05-24 13:34:00,
2013-05-24 08:39:00,59.2,49.8,30.25,ESE,113,5.0,8.0,71,0.00,,,0.00,meteohub,2013-05-24 13:39:00,
2013-05-24 08:44:00,59.4,50.4,30.25,East,90,3.0,7.0,72,0.00,,,0.00,meteohub,2013-05-24 13:44:00,
2013-05-24 08:49:00,59.7,49.5,30.25,ENE,68,6.0,7.0,69,0.00,,,0.00,meteohub,2013-05-24 13:49:00,
2013-05-24 08:54:00,59.9,49.6,30.25,ESE,113,5.0,6.0,69,0.00,,,0.00,meteohub,2013-05-24 13:54:00,
2013-05-24 08:59:00,59.7,49.1,30.25,ENE,68,5.0,6.0,68,0.00,,,0.00,meteohub,2013-05-24 13:59:00,
2013-05-24 09:04:00,60.1,49.5,30.25,ESE,113,4.0,6.0,68,0.00,,,0.00,meteohub,2013-05-24 14:04:00,
2013-05-24 09:09:00,60.6,49.6,30.25,ESE,113,2.0,6.0,67,0.00,,,0.00,meteohub,2013-05-24 14:09:00,
2013-05-24 09:14:00,60.6,49.6,30.25,East,90,4.0,6.0,67,0.00,,,0.00,meteohub,2013-05-24 14:14:00,
2013-05-24 09:19:00,61.0,49.5,30.25,East,90,5.0,5.0,66,0.00,,,0.00,meteohub,2013-05-24 14:19:00,
2013-05-24 09:24:00,61.2,48.4,30.25,ESE,113,5.0,5.0,63,0.00,,,0.00,meteohub,2013-05-24 14:24:00,
2013-05-24 09:29:00,61.3,48.6,30.25,ESE,113,7.0,8.0,63,0.00,,,0.00,meteohub,2013-05-24 14:29:00,
2013-05-24 09:34:00,61.7,48.9,30.25,ENE,68,7.0,8.0,63,0.00,,,0.00,meteohub,2013-05-24 14:34:00,
2013-05-24 09:39:00,61.9,48.7,30.26,East,90,4.0,8.0,62,0.00,,,0.00,meteohub,2013-05-24 14:39:00,
2013-05-24 09:44:00,62.1,49.3,30.25,NNW,338,7.0,8.0,63,0.00,,,0.00,meteohub,2013-05-24 14:44:00,
2013-05-24 09:49:00,62.2,49.1,30.25,ENE,68,4.0,7.0,62,0.00,,,0.00,meteohub,2013-05-24 14:49:00,
2013-05-24 09:54:00,62.2,49.1,30.25,ESE,113,6.0,7.0,62,0.00,,,0.00,meteohub,2013-05-24 14:54:00,
2013-05-24 09:59:00,62.4,48.7,30.25,SE,135,3.0,7.0,61,0.00,,,0.00,meteohub,2013-05-24 14:59:00,
2013-05-24 10:05:00,62.6,48.9,30.25,ESE,113,6.0,7.0,61,0.00,,,0.00,meteohub,2013-05-24 15:05:00,
2013-05-24 10:10:00,62.8,49.6,30.25,ESE,113,3.0,6.0,62,0.00,,,0.00,meteohub,2013-05-24 15:10:00,
2013-05-24 10:15:00,63.1,49.5,30.25,ENE,68,0.0,7.0,61,0.00,,,0.00,meteohub,2013-05-24 15:15:00,
2013-05-24 10:20:00,63.5,50.2,30.25,ESE,113,4.0,7.0,62,0.00,,,0.00,meteohub,2013-05-24 15:20:00,
2013-05-24 10:25:00,63.9,51.1,30.25,ESE,113,3.0,6.0,63,0.00,,,0.00,meteohub,2013-05-24 15:25:00,
2013-05-24 10:30:00,64.2,50.5,30.25,East,90,4.0,5.0,61,0.00,,,0.00,meteohub,2013-05-24 15:30:00,
2013-05-24 10:35:00,64.4,51.1,30.25,ESE,113,3.0,5.0,62,0.00,,,0.00,meteohub,2013-05-24 15:35:00,
2013-05-24 10:40:00,64.4,50.2,30.26,East,90,2.0,4.0,60,0.00,,,0.00,meteohub,2013-05-24 15:40:00,
2013-05-24 10:45:00,64.4,50.2,30.26,ESE,113,3.0,4.0,60,0.00,,,0.00,meteohub,2013-05-24 15:45:00,
2013-05-24 10:50:00,64.4,49.8,30.26,ESE,113,4.0,5.0,59,0.00,,,0.00,meteohub,2013-05-24 15:50:00,
2013-05-24 10:55:00,64.6,50.9,30.26,ESE,113,2.0,5.0,61,0.00,,,0.00,meteohub,2013-05-24 15:55:00,
2013-05-24 11:00:00,64.9,50.7,30.26,ESE,113,3.0,5.0,60,0.00,,,0.00,meteohub,2013-05-24 16:00:00,
2013-05-24 11:05:00,65.1,50.0,30.26,ESE,113,4.0,5.0,58,0.00,,,0.00,meteohub,2013-05-24 16:05:00,
2013-05-24 11:10:00,65.1,50.4,30.26,ESE,113,5.0,6.0,59,0.00,,,0.00,meteohub,2013-05-24 16:10:00,
2013-05-24 11:15:00,65.3,50.5,30.26,ESE,113,3.0,6.0,59,0.00,,,0.00,meteohub,2013-05-24 16:15:00,
2013-05-24 11:20:00,65.1,50.9,30.24,East,90,2.0,7.0,60,0.00,,,0.00,meteohub,2013-05-24 16:20:00,
2013-05-24 11:25:00,65.3,50.2,30.24,ESE,113,4.0,7.0,58,0.00,,,0.00,meteohub,2013-05-24 16:25:00,
2013-05-24 11:30:00,65.5,50.4,30.24,ESE,113,4.0,7.0,58,0.00,,,0.00,meteohub,2013-05-24 16:30:00,
2013-05-24 11:35:00,65.5,50.4,30.24,ESE,113,4.0,5.0,58,0.00,,,0.00,meteohub,2013-05-24 16:35:00,
2013-05-24 11:40:00,65.7,50.0,30.22,ESE,113,7.0,7.0,57,0.00,,,0.00,meteohub,2013-05-24 16:40:00,
2013-05-24 11:45:00,65.7,50.0,30.22,ESE,113,6.0,7.0,57,0.00,,,0.00,meteohub,2013-05-24 16:45:00,
2013-05-24 11:50:00,65.8,50.2,30.22,ESE,113,4.0,7.0,57,0.00,,,0.00,meteohub,2013-05-24 16:50:00,
2013-05-24 11:55:00,66.0,50.4,30.22,ESE,113,3.0,7.0,57,0.00,,,0.00,meteohub,2013-05-24 16:55:00,
2013-05-24 12:00:00,66.0,49.8,30.23,ESE,113,7.0,7.0,56,0.00,,,0.00,meteohub,2013-05-24 17:00:00,
2013-05-24 12:05:00,66.4,50.7,30.23,East,90,3.0,7.0,57,0.00,,,0.00,meteohub,2013-05-24 17:05:00,
2013-05-24 12:10:00,66.7,51.1,30.23,ESE,113,5.0,7.0,57,0.00,,,0.00,meteohub,2013-05-24 17:10:00,
2013-05-24 12:15:00,66.7,51.1,30.23,ESE,113,3.0,7.0,57,0.00,,,0.00,meteohub,2013-05-24 17:15:00,
2013-05-24 12:20:00,67.1,50.9,30.22,East,90,4.0,7.0,56,0.00,,,0.00,meteohub,2013-05-24 17:20:00,
2013-05-24 12:25:00,67.1,51.4,30.22,SE,135,2.0,5.0,57,0.00,,,0.00,meteohub,2013-05-24 17:25:00,
2013-05-24 12:30:00,67.3,51.4,30.22,ESE,113,3.0,5.0,57,0.00,,,0.00,meteohub,2013-05-24 17:30:00,
2013-05-24 12:35:00,67.6,51.8,30.22,ESE,113,2.0,5.0,57,0.00,,,0.00,meteohub,2013-05-24 17:35:00,
2013-05-24 12:40:00,67.6,51.8,30.23,ESE,113,5.0,5.0,57,0.00,,,0.00,meteohub,2013-05-24 17:40:00,
2013-05-24 12:45:00,67.8,51.1,30.23,ESE,113,7.0,7.0,55,0.00,,,0.00,meteohub,2013-05-24 17:45:00,
2013-05-24 12:50:00,67.8,51.6,30.23,ESE,113,3.0,7.0,56,0.00,,,0.00,meteohub,2013-05-24 17:50:00,
2013-05-24 12:55:00,68.0,52.2,30.23,ESE,113,3.0,7.0,57,0.00,,,0.00,meteohub,2013-05-24 17:55:00,
2013-05-24 13:00:00,68.2,52.3,30.21,East,90,4.0,7.0,57,0.00,,,0.00,meteohub,2013-05-24 18:00:00,
2013-05-24 13:05:00,68.4,51.1,30.21,ESE,113,6.0,6.0,54,0.00,,,0.00,meteohub,2013-05-24 18:05:00,
2013-05-24 13:10:00,68.5,52.2,30.21,SE,135,0.0,6.0,56,0.00,,,0.00,meteohub,2013-05-24 18:10:00,
2013-05-24 13:15:00,68.7,52.0,30.21,East,90,5.0,6.0,55,0.00,,,0.00,meteohub,2013-05-24 18:15:00,
2013-05-24 13:20:00,68.7,52.0,30.21,ESE,113,5.0,5.0,55,0.00,,,0.00,meteohub,2013-05-24 18:20:00,
2013-05-24 13:25:00,68.9,51.6,30.21,ESE,113,4.0,6.0,54,0.00,,,0.00,meteohub,2013-05-24 18:25:00,
2013-05-24 13:30:00,69.3,52.3,30.20,ENE,68,2.0,6.0,55,0.00,,,0.00,meteohub,2013-05-24 18:30:00,
2013-05-24 13:35:00,69.4,53.1,30.20,SE,135,4.0,6.0,56,0.00,,,0.00,meteohub,2013-05-24 18:35:00,
2013-05-24 13:40:00,69.4,52.5,30.19,ESE,113,5.0,5.0,55,0.00,,,0.00,meteohub,2013-05-24 18:40:00,
2013-05-24 13:45:00,69.6,52.2,30.19,ESE,113,4.0,5.0,54,0.00,,,0.00,meteohub,2013-05-24 18:45:00,
2013-05-24 13:50:00,70.0,51.6,30.19,ENE,68,4.0,6.0,52,0.00,,,0.00,meteohub,2013-05-24 18:50:00,
2013-05-24 13:55:00,70.0,50.5,30.19,ESE,113,6.0,6.0,50,0.00,,,0.00,meteohub,2013-05-24 18:55:00,
2013-05-24 14:00:00,70.0,50.5,30.20,ESE,113,5.0,6.0,50,0.00,,,0.00,meteohub,2013-05-24 19:00:00,
2013-05-24 14:05:00,70.3,52.3,30.19,ESE,113,4.0,6.0,53,0.00,,,0.00,meteohub,2013-05-24 19:05:00,
2013-05-24 14:10:00,70.5,51.4,30.19,ESE,113,4.0,6.0,51,0.00,,,0.00,meteohub,2013-05-24 19:10:00,
2013-05-24 14:15:00,70.7,52.2,30.19,ESE,113,5.0,6.0,52,0.00,,,0.00,meteohub,2013-05-24 19:15:00,
2013-05-24 14:20:00,70.7,52.2,30.19,ESE,113,4.0,6.0,52,0.00,,,0.00,meteohub,2013-05-24 19:20:00,
2013-05-24 14:25:00,70.9,51.8,30.19,ESE,113,4.0,6.0,51,0.00,,,0.00,meteohub,2013-05-24 19:25:00,
2013-05-24 14:30:00,71.1,50.9,30.18,SSW,203,4.0,5.0,49,0.00,,,0.00,meteohub,2013-05-24 19:30:00,
2013-05-24 14:35:00,71.1,50.4,30.18,SE,135,3.0,6.0,48,0.00,,,0.00,meteohub,2013-05-24 19:35:00,
2013-05-24 14:40:00,71.2,50.5,30.18,ENE,68,6.0,6.0,48,0.00,,,0.00,meteohub,2013-05-24 19:40:00,
2013-05-24 14:45:00,71.4,50.7,30.18,ESE,113,5.0,7.0,48,0.00,,,0.00,meteohub,2013-05-24 19:45:00,
2013-05-24 14:50:00,71.4,51.3,30.18,ESE,113,8.0,8.0,49,0.00,,,0.00,meteohub,2013-05-24 19:50:00,
2013-05-24 14:55:00,71.8,51.1,30.18,East,90,6.0,8.0,48,0.00,,,0.00,meteohub,2013-05-24 19:55:00,
2013-05-24 15:00:00,71.8,52.2,30.17,ESE,113,2.0,8.0,50,0.00,,,0.00,meteohub,2013-05-24 20:00:00,
2013-05-24 15:05:00,72.1,52.5,30.17,ENE,68,4.0,8.0,50,0.00,,,0.00,meteohub,2013-05-24 20:05:00,
2013-05-24 15:10:00,72.1,52.0,30.17,ESE,113,5.0,6.0,49,0.00,,,0.00,meteohub,2013-05-24 20:10:00,
2013-05-24 15:15:00,72.3,52.2,30.17,ESE,113,4.0,6.0,49,0.00,,,0.00,meteohub,2013-05-24 20:15:00,
2013-05-24 15:20:00,72.5,52.3,30.16,East,90,0.0,6.0,49,0.00,,,0.00,meteohub,2013-05-24 20:20:00,
2013-05-24 15:25:00,72.9,53.1,30.16,SE,135,1.0,4.0,50,0.00,,,0.00,meteohub,2013-05-24 20:25:00,
2013-05-24 15:30:00,73.2,52.9,30.16,ESE,113,4.0,4.0,49,0.00,,,0.00,meteohub,2013-05-24 20:30:00,
2013-05-24 15:35:00,73.4,52.0,30.16,ESE,113,6.0,6.0,47,0.00,,,0.00,meteohub,2013-05-24 20:35:00,
2013-05-24 15:40:00,73.4,52.5,30.17,ENE,68,2.0,6.0,48,0.00,,,0.00,meteohub,2013-05-24 20:40:00,
2013-05-24 15:45:00,73.4,52.5,30.17,ESE,113,2.0,6.0,48,0.00,,,0.00,meteohub,2013-05-24 20:45:00,
2013-05-24 15:50:00,73.2,52.3,30.17,SE,135,4.0,6.0,48,0.00,,,0.00,meteohub,2013-05-24 20:50:00,
2013-05-24 15:55:00,73.6,52.7,30.17,ESE,113,2.0,4.0,48,0.00,,,0.00,meteohub,2013-05-24 20:55:00,
2013-05-24 16:00:00,73.6,53.2,30.16,ESE,113,3.0,4.0,49,0.00,,,0.00,meteohub,2013-05-24 21:00:00,
2013-05-24 16:05:00,73.6,52.2,30.16,SE,135,2.0,6.0,47,0.00,,,0.00,meteohub,2013-05-24 21:05:00,
2013-05-24 16:10:00,73.9,53.1,30.16,ESE,113,3.0,6.0,48,0.00,,,0.00,meteohub,2013-05-24 21:10:00,
2013-05-24 16:15:00,73.9,51.8,30.16,ESE,113,3.0,6.0,46,0.00,,,0.00,meteohub,2013-05-24 21:15:00,
2013-05-24 16:20:00,73.9,51.8,30.15,ESE,113,3.0,4.0,46,0.00,,,0.00,meteohub,2013-05-24 21:20:00,
2013-05-24 16:25:00,73.8,51.6,30.15,ESE,113,4.0,4.0,46,0.00,,,0.00,meteohub,2013-05-24 21:25:00,
2013-05-24 16:30:00,73.8,52.3,30.15,ESE,113,1.0,4.0,47,0.00,,,0.00,meteohub,2013-05-24 21:30:00,
2013-05-24 16:35:00,73.9,51.8,30.15,ESE,113,4.0,4.0,46,0.00,,,0.00,meteohub,2013-05-24 21:35:00,
2013-05-24 16:41:00,73.9,51.8,30.15,SE,135,3.0,4.0,46,0.00,,,0.00,meteohub,2013-05-24 21:41:00,
2013-05-24 16:46:00,73.8,51.6,30.15,SE,135,2.0,4.0,46,0.00,,,0.00,meteohub,2013-05-24 21:46:00,
2013-05-24 16:51:00,73.9,51.8,30.15,ESE,113,4.0,4.0,46,0.00,,,0.00,meteohub,2013-05-24 21:51:00,
2013-05-24 16:56:00,74.3,52.7,30.15,ESE,113,3.0,5.0,47,0.00,,,0.00,meteohub,2013-05-24 21:56:00,
2013-05-24 17:01:00,74.3,50.4,30.14,ESE,113,4.0,5.0,43,0.00,,,0.00,meteohub,2013-05-24 22:01:00,
2013-05-24 17:06:00,74.3,50.9,30.14,SE,135,4.0,5.0,44,0.00,,,0.00,meteohub,2013-05-24 22:06:00,
2013-05-24 17:11:00,74.3,52.2,30.14,East,90,3.0,5.0,46,0.00,,,0.00,meteohub,2013-05-24 22:11:00,
2013-05-24 17:16:00,74.3,51.6,30.14,ESE,113,4.0,5.0,45,0.00,,,0.00,meteohub,2013-05-24 22:16:00,
2013-05-24 17:21:00,74.3,50.9,30.13,ESE,113,5.0,5.0,44,0.00,,,0.00,meteohub,2013-05-24 22:21:00,
2013-05-24 17:26:00,74.3,50.9,30.13,ESE,113,4.0,5.0,44,0.00,,,0.00,meteohub,2013-05-24 22:26:00,
2013-05-24 17:31:00,74.1,49.6,30.13,ESE,113,4.0,5.0,42,0.00,,,0.00,meteohub,2013-05-24 22:31:00,
2013-05-24 17:36:00,74.3,49.6,30.13,SE,135,2.0,7.0,42,0.00,,,0.00,meteohub,2013-05-24 22:36:00,
2013-05-24 17:41:00,74.3,50.4,30.12,ESE,113,3.0,7.0,43,0.00,,,0.00,meteohub,2013-05-24 22:41:00,
2013-05-24 17:46:00,74.1,50.9,30.12,SE,135,2.0,5.0,44,0.00,,,0.00,meteohub,2013-05-24 22:46:00,
2013-05-24 17:51:00,74.3,50.9,30.12,East,90,5.0,5.0,44,0.00,,,0.00,meteohub,2013-05-24 22:51:00,
2013-05-24 17:56:00,74.1,50.2,30.12,ESE,113,3.0,5.0,43,0.00,,,0.00,meteohub,2013-05-24 22:56:00,
2013-05-24 18:01:00,74.3,50.4,30.14,SE,135,2.0,5.0,43,0.00,,,0.00,meteohub,2013-05-24 23:01:00,
2013-05-24 18:06:00,73.9,50.0,30.14,ESE,113,3.0,5.0,43,0.00,,,0.00,meteohub,2013-05-24 23:06:00,
2013-05-24 18:11:00,73.9,50.0,30.14,ESE,113,5.0,5.0,43,0.00,,,0.00,meteohub,2013-05-24 23:11:00,
2013-05-24 18:16:00,73.8,49.3,30.14,ESE,113,4.0,5.0,42,0.00,,,0.00,meteohub,2013-05-24 23:16:00,
2013-05-24 18:21:00,73.6,49.6,30.12,ESE,113,3.0,6.0,43,0.00,,,0.00,meteohub,2013-05-24 23:21:00,
2013-05-24 18:26:00,73.6,49.6,30.12,ESE,113,5.0,6.0,43,0.00,,,0.00,meteohub,2013-05-24 23:26:00,
2013-05-24 18:31:00,73.2,49.5,30.12,ENE,68,4.0,6.0,43,0.00,,,0.00,meteohub,2013-05-24 23:31:00,
2013-05-24 18:36:00,73.6,50.4,30.12,ESE,113,3.0,6.0,44,0.00,,,0.00,meteohub,2013-05-24 23:36:00,
2013-05-24 18:41:00,73.2,50.0,30.12,ESE,113,2.0,6.0,44,0.00,,,0.00,meteohub,2013-05-24 23:41:00,
2013-05-24 18:46:00,73.2,50.5,30.12,ESE,113,2.0,5.0,45,0.00,,,0.00,meteohub,2013-05-24 23:46:00,
2013-05-24 18:51:00,73.0,50.4,30.12,SSE,158,0.0,5.0,45,0.00,,,0.00,meteohub,2013-05-24 23:51:00,
2013-05-24 18:56:00,73.2,51.3,30.12,SE,135,3.0,3.0,46,0.00,,,0.00,meteohub,2013-05-24 23:56:00,
2013-05-24 19:01:00,72.9,50.4,30.12,ESE,113,3.0,4.0,45,0.00,,,0.00,meteohub,2013-05-25 00:01:00,
2013-05-24 19:06:00,72.9,50.4,30.12,ESE,113,2.0,4.0,45,0.00,,,0.00,meteohub,2013-05-25 00:06:00,
2013-05-24 19:11:00,72.5,50.5,30.12,ESE,113,2.0,4.0,46,0.00,,,0.00,meteohub,2013-05-25 00:11:00,
2013-05-24 19:16:00,72.5,50.0,30.12,SE,135,3.0,4.0,45,0.00,,,0.00,meteohub,2013-05-25 00:16:00,
2013-05-24 19:21:00,72.1,50.2,30.12,ESE,113,2.0,4.0,46,0.00,,,0.00,meteohub,2013-05-25 00:21:00,
2013-05-24 19:26:00,72.1,50.2,30.12,ESE,113,3.0,4.0,46,0.00,,,0.00,meteohub,2013-05-25 00:26:00,
2013-05-24 19:31:00,72.0,50.7,30.12,ESE,113,0.0,3.0,47,0.00,,,0.00,meteohub,2013-05-25 00:31:00,
2013-05-24 19:36:00,71.8,50.5,30.12,SE,135,1.0,3.0,47,0.00,,,0.00,meteohub,2013-05-25 00:36:00,
2013-05-24 19:41:00,71.4,50.2,30.12,ESE,113,3.0,3.0,47,0.00,,,0.00,meteohub,2013-05-25 00:41:00,
2013-05-24 19:46:00,71.2,50.0,30.12,ESE,113,2.0,3.0,47,0.00,,,0.00,meteohub,2013-05-25 00:46:00,
2013-05-24 19:51:00,70.7,49.5,30.12,ESE,113,2.0,3.0,47,0.00,,,0.00,meteohub,2013-05-25 00:51:00,
2013-05-24 19:56:00,70.7,50.0,30.12,ESE,113,2.0,3.0,48,0.00,,,0.00,meteohub,2013-05-25 00:56:00,
2013-05-24 20:01:00,70.2,49.6,30.13,ENE,68,1.0,2.0,48,0.00,,,0.00,meteohub,2013-05-25 01:01:00,
2013-05-24 20:06:00,70.0,50.0,30.13,SE,135,0.0,2.0,49,0.00,,,0.00,meteohub,2013-05-25 01:06:00,
2013-05-24 20:11:00,69.4,49.5,30.13,SE,135,1.0,2.0,49,0.00,,,0.00,meteohub,2013-05-25 01:11:00,
2013-05-24 20:16:00,69.3,48.7,30.13,ESE,113,2.0,4.0,48,0.00,,,0.00,meteohub,2013-05-25 01:16:00,
2013-05-24 20:21:00,68.9,48.9,30.13,ESE,113,3.0,4.0,49,0.00,,,0.00,meteohub,2013-05-25 01:21:00,
2013-05-24 20:26:00,68.5,48.6,30.13,ESE,113,0.0,4.0,49,0.00,,,0.00,meteohub,2013-05-25 01:26:00,
2013-05-24 20:31:00,68.5,48.6,30.13,ESE,113,1.0,3.0,49,0.00,,,0.00,meteohub,2013-05-25 01:31:00,
2013-05-24 20:36:00,68.0,48.7,30.13,ESE,113,1.0,3.0,50,0.00,,,0.00,meteohub,2013-05-25 01:36:00,
2013-05-24 20:41:00,67.6,48.4,30.14,ESE,113,1.0,2.0,50,0.00,,,0.00,meteohub,2013-05-25 01:41:00,
2013-05-24 20:46:00,67.5,48.7,30.14,ESE,113,0.0,2.0,51,0.00,,,0.00,meteohub,2013-05-25 01:46:00,
2013-05-24 20:51:00,67.3,48.6,30.14,ESE,113,0.0,2.0,51,0.00,,,0.00,meteohub,2013-05-25 01:51:00,
2013-05-24 20:56:00,67.1,48.9,30.14,ESE,113,2.0,2.0,52,0.00,,,0.00,meteohub,2013-05-25 01:56:00,
2013-05-24 21:01:00,66.7,48.6,30.13,ESE,113,0.0,2.0,52,0.00,,,0.00,meteohub,2013-05-25 02:01:00,
2013-05-24 21:06:00,66.6,48.9,30.13,ESE,113,1.0,2.0,53,0.00,,,0.00,meteohub,2013-05-25 02:06:00,
2013-05-24 21:11:00,66.4,48.7,30.13,ESE,113,3.0,3.0,53,0.00,,,0.00,meteohub,2013-05-25 02:11:00,
2013-05-24 21:16:00,66.4,49.3,30.15,ESE,113,0.0,3.0,54,0.00,,,0.00,meteohub,2013-05-25 02:16:00,
2013-05-24 21:22:00,66.0,48.9,30.15,SE,135,3.0,3.0,54,0.00,,,0.00,meteohub,2013-05-25 02:22:00,
2013-05-24 21:27:00,66.0,48.9,30.15,ESE,113,3.0,3.0,54,0.00,,,0.00,meteohub,2013-05-25 02:27:00,
2013-05-24 21:31:00,65.7,48.6,30.15,ESE,113,3.0,3.0,54,0.00,,,0.00,meteohub,2013-05-25 02:31:00,
2013-05-24 21:37:00,65.7,49.1,30.15,ESE,113,1.0,3.0,55,0.00,,,0.00,meteohub,2013-05-25 02:37:00,
2013-05-24 21:42:00,65.3,48.7,30.15,ESE,113,3.0,3.0,55,0.00,,,0.00,meteohub,2013-05-25 02:42:00,
2013-05-24 21:47:00,65.1,48.6,30.15,ESE,113,2.0,3.0,55,0.00,,,0.00,meteohub,2013-05-25 02:47:00,
2013-05-24 21:52:00,65.1,48.6,30.15,ESE,113,2.0,3.0,55,0.00,,,0.00,meteohub,2013-05-25 02:52:00,
2013-05-24 21:57:00,64.9,48.4,30.19,ESE,113,2.0,3.0,55,0.00,,,0.00,meteohub,2013-05-25 02:57:00,
2013-05-24 22:02:00,64.9,48.4,30.19,ESE,113,3.0,3.0,55,0.00,,,0.00,meteohub,2013-05-25 03:02:00,
2013-05-24 22:07:00,64.8,48.2,30.19,ESE,113,3.0,3.0,55,0.00,,,0.00,meteohub,2013-05-25 03:07:00,
2013-05-24 22:12:00,64.6,48.6,30.19,SW,225,3.0,3.0,56,0.00,,,0.00,meteohub,2013-05-25 03:12:00,
2013-05-24 22:17:00,64.4,47.8,30.19,ESE,113,3.0,3.0,55,0.00,,,0.00,meteohub,2013-05-25 03:17:00,
2013-05-24 22:22:00,64.6,48.0,30.20,ESE,113,2.0,4.0,55,0.00,,,0.00,meteohub,2013-05-25 03:22:00,
2013-05-24 22:27:00,64.4,47.8,30.20,ESE,113,3.0,4.0,55,0.00,,,0.00,meteohub,2013-05-25 03:27:00,
2013-05-24 22:32:00,64.2,47.7,30.20,East,90,2.0,3.0,55,0.00,,,0.00,meteohub,2013-05-25 03:32:00,
2013-05-24 22:37:00,64.0,47.5,30.20,SE,135,4.0,5.0,55,0.00,,,0.00,meteohub,2013-05-25 03:37:00,
2013-05-24 22:42:00,63.9,47.3,30.22,SSE,158,2.0,5.0,55,0.00,,,0.00,meteohub,2013-05-25 03:42:00,
2013-05-24 22:47:00,63.7,47.3,30.22,ESE,113,3.0,5.0,55,0.00,,,0.00,meteohub,2013-05-25 03:47:00,
2013-05-24 22:52:00,63.7,47.7,30.22,NE,45,3.0,5.0,56,0.00,,,0.00,meteohub,2013-05-25 03:52:00,
2013-05-24 22:57:00,63.3,47.3,30.22,ESE,113,2.0,3.0,56,0.00,,,0.00,meteohub,2013-05-25 03:57:00,
2013-05-24 23:01:00,63.5,47.5,30.22,SE,135,0.0,4.0,56,0.00,,,0.00,meteohub,2013-05-25 04:01:00,
2013-05-24 23:02:00,63.5,47.5,30.22,SE,135,0.0,4.0,56,0.00,,,0.00,meteohub,2013-05-25 04:02:00,
2013-05-24 23:07:00,63.1,47.1,30.22,ESE,113,2.0,4.0,56,0.00,,,0.00,meteohub,2013-05-25 04:07:00,
2013-05-24 23:12:00,63.0,46.9,30.22,ESE,113,2.0,4.0,56,0.00,,,0.00,meteohub,2013-05-25 04:12:00,
2013-05-24 23:17:00,63.0,46.9,30.22,SE,135,2.0,3.0,56,0.00,,,0.00,meteohub,2013-05-25 04:17:00,
2013-05-24 23:22:00,62.8,46.9,30.22,ESE,113,3.0,3.0,56,0.00,,,0.00,meteohub,2013-05-25 04:22:00,
2013-05-24 23:27:00,62.4,46.9,30.23,ESE,113,4.0,4.0,57,0.00,,,0.00,meteohub,2013-05-25 04:27:00,
2013-05-24 23:32:00,62.4,46.9,30.23,ESE,113,3.0,4.0,57,0.00,,,0.00,meteohub,2013-05-25 04:32:00,
2013-05-24 23:37:00,62.2,46.8,30.19,ESE,113,3.0,4.0,57,0.00,,,0.00,meteohub,2013-05-25 04:37:00,
2013-05-24 23:42:00,62.1,46.6,30.19,ESE,113,3.0,4.0,57,0.00,,,0.00,meteohub,2013-05-25 04:42:00,
2013-05-24 23:47:00,62.1,47.1,30.19,ESE,113,4.0,4.0,58,0.00,,,0.00,meteohub,2013-05-25 04:47:00,
2013-05-24 23:52:00,62.1,47.1,30.19,ESE,113,2.0,4.0,58,0.00,,,0.00,meteohub,2013-05-25 04:52:00,
2013-05-24 23:57:00,61.7,46.8,30.17,ESE,113,3.0,4.0,58,0.00,,,0.00,meteohub,2013-05-25 04:57:00,